TimeCST,TemperatureF,Dew PointF,Humidity,Sea Level PressureIn,VisibilityMPH,Wind Direction,Wind SpeedMPH,Gust SpeedMPH,PrecipitationIn,Events,Conditions,WindDirDegrees,DateUTC
12:58 AM,36.7,26.8,67,30.17,10.0,SSE,15.0,21.9,N/A,,Overcast,160,2013-11-20 06:58:00
1:58 AM,37.2,26.6,65,30.17,10.0,SSE,15.0,20.7,N/A,,Mostly Cloudy,160,2013-11-20 07:58:00
2:58 AM,36.9,27.1,68,30.16,10.0,SSE,15.0,23.0,N/A,,Mostly Cloudy,160,2013-11-20 08:58:00
3:58 AM,36.9,27.0,67,30.16,10.0,SSE,6.9,-,N/A,,Scattered Clouds,160,2013-11-20 09:58:00
4:58 AM,36.7,26.6,67,30.16,10.0,SE,9.2,-,N/A,,Overcast,130,2013-11-20 10:58:00
5:58 AM,36.5,27.1,69,30.13,10.0,SE,9.2,18.4,N/A,,Overcast,130,2013-11-20 11:58:00
6:58 AM,35.6,26.6,70,30.14,10.0,SSE,10.4,-,N/A,,Overcast,150,2013-11-20 12:58:00
7:58 AM,35.6,26.6,70,30.15,10.0,SSE,9.2,-,N/A,,Overcast,150,2013-11-20 13:58:00
8:58 AM,35.6,26.6,70,30.15,10.0,SSE,10.4,20.7,N/A,,Overcast,150,2013-11-20 14:58:00
9:58 AM,37.4,28.4,70,30.16,10.0,SSE,12.7,19.6,N/A,,Mostly Cloudy,150,2013-11-20 15:58:00
10:58 AM,37.4,26.6,65,30.15,10.0,SSE,9.2,-,N/A,,Mostly Cloudy,150,2013-11-20 16:58:00
11:59 AM,39.2,26.6,61,30.14,10.0,SSE,10.4,-,N/A,,Overcast,150,2013-11-20 17:59:00
12:58 PM,39.2,26.6,61,30.12,10.0,South,11.5,-,N/A,,Partly Cloudy,170,2013-11-20 18:58:00
1:58 PM,39.2,26.6,61,30.09,10.0,SE,8.1,-,N/A,,Overcast,140,2013-11-20 19:58:00
2:24 PM,39.2,26.6,61,30.05,10.0,SE,4.6,-,N/A,,Unknown,130,2013-11-20 20:24:00
2:58 PM,37.4,28.4,70,30.09,10.0,Variable,2.3,-,N/A,Snow,Light Snow,0,2013-11-20 20:58:00
3:06 PM,37.4,28.4,70,30.05,10.0,SE,3.5,-,N/A,,Overcast,130,2013-11-20 21:06:00
3:58 PM,39.2,26.6,61,30.09,10.0,ESE,6.9,-,N/A,,Overcast,120,2013-11-20 21:58:00
4:58 PM,37.4,30.2,75,30.09,10.0,SE,11.5,-,N/A,,Overcast,130,2013-11-20 22:58:00
5:13 PM,35.6,30.2,81,30.04,10.0,ESE,9.2,-,N/A,Snow,Light Snow,120,2013-11-20 23:13:00
5:58 PM,35.6,32.0,87,30.09,10.0,ESE,8.1,-,N/A,Snow,Light Snow,120,2013-11-20 23:58:00
6:42 PM,32.0,32.0,100,30.06,10.0,ESE,6.9,-,N/A,,Overcast,110,2013-11-21 00:42:00
6:58 PM,33.8,33.8,100,30.10,5.0,ESE,5.8,-,N/A,,Overcast,120,2013-11-21 00:58:00
7:26 PM,32.0,32.0,100,30.06,4.0,SE,6.9,-,N/A,,Overcast,130,2013-11-21 01:26:00
7:58 PM,33.8,33.8,100,30.10,4.0,SE,8.1,-,N/A,,Overcast,140,2013-11-21 01:58:00
8:37 PM,33.8,33.8,100,30.06,4.0,SE,6.9,-,N/A,,Overcast,130,2013-11-21 02:37:00
8:42 PM,33.8,33.8,100,30.06,4.0,ESE,5.8,-,N/A,,Overcast,120,2013-11-21 02:42:00
8:47 PM,33.8,33.8,100,30.06,3.0,ESE,4.6,-,N/A,Snow,Light Snow,120,2013-11-21 02:47:00
8:52 PM,32.0,32.0,100,30.06,3.0,ESE,9.2,-,N/A,Snow,Light Snow,120,2013-11-21 02:52:00
8:58 PM,33.4,33.4,100,30.10,4.0,ESE,6.9,-,0.02,Rain,Light Rain,120,2013-11-21 02:58:00
9:03 PM,32.0,32.0,100,30.05,3.0,ESE,8.1,-,N/A,Rain,Light Rain,110,2013-11-21 03:03:00
9:12 PM,32.0,32.0,100,30.06,4.0,ESE,6.9,-,N/A,,Overcast,120,2013-11-21 03:12:00
9:38 PM,32.0,32.0,100,30.06,5.0,SE,5.8,-,N/A,,Overcast,130,2013-11-21 03:38:00
9:48 PM,32.0,32.0,100,30.06,5.0,ESE,2.3,-,N/A,,Overcast,110,2013-11-21 03:48:00
9:58 PM,33.4,33.4,100,30.10,5.0,SE,4.6,-,0.01,,Overcast,130,2013-11-21 03:58:00
10:08 PM,32.0,32.0,100,30.06,5.0,SE,4.6,-,N/A,,Overcast,130,2013-11-21 04:08:00
10:13 PM,32.0,32.0,100,30.06,5.0,SE,4.6,-,N/A,,Overcast,140,2013-11-21 04:13:00
10:18 PM,33.8,33.8,100,30.06,5.0,Variable,2.3,-,N/A,,Overcast,0,2013-11-21 04:18:00
10:38 PM,33.8,33.8,100,30.06,5.0,ESE,3.5,-,N/A,,Overcast,120,2013-11-21 04:38:00
10:58 PM,33.8,33.8,100,30.10,5.0,ESE,3.5,-,N/A,,Overcast,110,2013-11-21 04:58:00
11:00 PM,33.8,33.8,100,30.06,6.0,SE,2.3,-,N/A,,Overcast,130,2013-11-21 05:00:00
11:58 PM,35.6,35.6,100,30.11,7.0,SSE,3.5,-,N/A,,Overcast,160,2013-11-21 05:58:00